Hourly Data Report for October 20, 2019

All times are specified in Local Standard Time (LST). Add 1 hour to adjust for Daylight Saving Time where and when it is observed.

WOODSTOCK NEWBRIDGE
NEW BRUNSWICK
Current Station Operator: ECCC - MSC

46°09'08.000" N
67°32'34.000" W
154.00 m
8105603
71606
EWD

Download Data

Hourly Data (October 2019)
Hourly Data Report for October 20, 2019
TIME Temp Definition
°C
Dew Point Definition
°C
Rel Hum Definition
%
Wind Dir Definition
10's deg

Wind Spd Definition
km/h
Visibility Definition
km
Stn Press Definition
kPa
Hmdx Definition


Wind Chill Definition


Weather Definition


00:00 2.2 -1.0 79 28 3   99.81     LegendNANA
01:00 2.6 -0.1 82 28 6   99.81     LegendNANA
02:00 2.9 0.1 82 28 8   99.82     LegendNANA
03:00 -0.8 -2.0 91   0   99.87     LegendNANA
04:00 -1.9 -2.7 94 17 2   99.91   -3 LegendNANA
05:00 -1.3 -1.6 97 28 5   99.94   -3 LegendNANA
06:00 0.3 -0.6 94 25 7   100.00     LegendNANA
07:00 -0.3 -0.9 96 27 6   100.05   -2 LegendNANA
08:00 1.8 -0.1 87 29 5   100.09     LegendNANA
09:00 3.7 0.5 79 31 7   100.10     LegendNANA
10:00 6.0 1.3 72 32 11   100.10     LegendNANA
11:00 8.6 2.0 63 30 10   100.11     LegendNANA
12:00 9.9 1.9 57 29 8   100.07     LegendNANA
13:00 11.5 1.8 51 27 8   100.04     LegendNANA
14:00 12.4 1.6 48 25 4   99.99     LegendNANA
15:00 13.1 1.2 44 29 4   99.98     LegendNANA
16:00 12.9 1.6 46 24 5   100.02     LegendNANA
17:00 12.1 2.1 51 23 4   100.01     LegendNANA
18:00 7.8 3.3 74 19 3   100.03     LegendNANA
19:00 6.8 3.4 79   0   100.03     LegendNANA
20:00 4.8 2.6 85 18 2   100.06     LegendNANA
21:00 4.1 2.4 88   0   100.07     LegendNANA
22:00 3.6 2.4 91 0 1   100.08     LegendNANA
23:00 4.3 3.2 92 0 1   100.09     LegendNANA

Notes on Data Quality.

Legend

  • E = Estimated
  • M = Missing
  • NA = Not Available
Date modified: